owner,sensor,date,latitude,longitude,air_temperature,qcFlag 
WAVCIS,ioos:station:WAVCIS:CSI15:1,2008-02-01T00:00:00Z,28.8332,-90.8320,18.61,11111222 
WAVCIS,ioos:station:WAVCIS:CSI15:1,2008-02-01T01:00:00Z,28.8332,-90.8320,18.49,11111222 
WAVCIS,ioos:station:WAVCIS:CSI15:1,2008-02-01T02:00:00Z,28.8332,-90.8320,18.28,11111222 
WAVCIS,ioos:station:WAVCIS:CSI15:1,2008-02-01T03:00:00Z,28.8332,-90.8320,18.25,11111222 
WAVCIS,ioos:station:WAVCIS:CSI15:1,2008-02-01T04:00:00Z,28.8332,-90.8320,18.34,11111222 
WAVCIS,ioos:station:WAVCIS:CSI15:1,2008-02-01T05:00:00Z,28.8332,-90.8320,17.7,11111222 
WAVCIS,ioos:station:WAVCIS:CSI15:1,2008-02-01T06:00:00Z,28.8332,-90.8320,16.85,11111222 
WAVCIS,ioos:station:WAVCIS:CSI15:1,2008-02-01T07:00:00Z,28.8332,-90.8320,15.69,11111222 
WAVCIS,ioos:station:WAVCIS:CSI15:1,2008-02-01T08:00:00Z,28.8332,-90.8320,13.58,11111222 
WAVCIS,ioos:station:WAVCIS:CSI15:1,2008-02-01T09:00:00Z,28.8332,-90.8320,12.37,11111222 
WAVCIS,ioos:station:WAVCIS:CSI15:1,2008-02-01T10:00:00Z,28.8332,-90.8320,11.42,11111222 
WAVCIS,ioos:station:WAVCIS:CSI15:1,2008-02-01T11:00:00Z,28.8332,-90.8320,10.32,11111222 
WAVCIS,ioos:station:WAVCIS:CSI15:1,2008-02-01T12:00:00Z,28.8332,-90.8320,9.67,11111222 
WAVCIS,ioos:station:WAVCIS:CSI15:1,2008-02-01T13:00:00Z,28.8332,-90.8320,9.38,11111222 
WAVCIS,ioos:station:WAVCIS:CSI15:1,2008-02-01T14:00:00Z,28.8332,-90.8320,9.34,11111222 
WAVCIS,ioos:station:WAVCIS:CSI15:1,2008-02-01T15:00:00Z,28.8332,-90.8320,9.36,11111222 
WAVCIS,ioos:station:WAVCIS:CSI15:1,2008-02-01T16:00:00Z,28.8332,-90.8320,9.28,11111222 
WAVCIS,ioos:station:WAVCIS:CSI15:1,2008-02-01T17:00:00Z,28.8332,-90.8320,10.08,11111222 
WAVCIS,ioos:station:WAVCIS:CSI15:1,2008-02-01T18:00:00Z,28.8332,-90.8320,11.28,11111222 
WAVCIS,ioos:station:WAVCIS:CSI15:1,2008-02-01T19:00:00Z,28.8332,-90.8320,12.52,11111222 
WAVCIS,ioos:station:WAVCIS:CSI15:1,2008-02-01T20:00:00Z,28.8332,-90.8320,14.61,11111222 
WAVCIS,ioos:station:WAVCIS:CSI15:1,2008-02-01T21:00:00Z,28.8332,-90.8320,14.45,11111222 
WAVCIS,ioos:station:WAVCIS:CSI15:1,2008-02-01T22:00:00Z,28.8332,-90.8320,14.09,11111222 
WAVCIS,ioos:station:WAVCIS:CSI15:1,2008-02-01T23:00:00Z,28.8332,-90.8320,13.96,11111222 
WAVCIS,ioos:station:WAVCIS:CSI15:1,2008-02-02T00:00:00Z,28.8332,-90.8320,13.44,11111222 
WAVCIS,ioos:station:WAVCIS:CSI15:1,2008-02-02T01:00:00Z,28.8332,-90.8320,13.32,11111222 
WAVCIS,ioos:station:WAVCIS:CSI15:1,2008-02-02T02:00:00Z,28.8332,-90.8320,14.08,11111222 
WAVCIS,ioos:station:WAVCIS:CSI15:1,2008-02-02T03:00:00Z,28.8332,-90.8320,13.94,11111222 
WAVCIS,ioos:station:WAVCIS:CSI15:1,2008-02-02T04:00:00Z,28.8332,-90.8320,14.44,11111222 
WAVCIS,ioos:station:WAVCIS:CSI15:1,2008-02-02T05:00:00Z,28.8332,-90.8320,15.19,11111222 
WAVCIS,ioos:station:WAVCIS:CSI15:1,2008-02-02T06:00:00Z,28.8332,-90.8320,17.26,11111222 
WAVCIS,ioos:station:WAVCIS:CSI15:1,2008-02-02T07:00:00Z,28.8332,-90.8320,16.37,11111222 
WAVCIS,ioos:station:WAVCIS:CSI15:1,2008-02-02T08:00:00Z,28.8332,-90.8320,16.97,11111222 
WAVCIS,ioos:station:WAVCIS:CSI15:1,2008-02-02T09:00:00Z,28.8332,-90.8320,17.34,11111222 
WAVCIS,ioos:station:WAVCIS:CSI15:1,2008-02-02T10:00:00Z,28.8332,-90.8320,17.83,11111222 
WAVCIS,ioos:station:WAVCIS:CSI15:1,2008-02-02T11:00:00Z,28.8332,-90.8320,18.29,11111222 
WAVCIS,ioos:station:WAVCIS:CSI15:1,2008-02-02T12:00:00Z,28.8332,-90.8320,18.79,11111222 
WAVCIS,ioos:station:WAVCIS:CSI15:1,2008-02-02T13:00:00Z,28.8332,-90.8320,19.09,11111222 
WAVCIS,ioos:station:WAVCIS:CSI15:1,2008-02-02T14:00:00Z,28.8332,-90.8320,19.44,11111222 
WAVCIS,ioos:station:WAVCIS:CSI15:1,2008-02-02T15:00:00Z,28.8332,-90.8320,20.02,11111222 
WAVCIS,ioos:station:WAVCIS:CSI15:1,2008-02-02T16:00:00Z,28.8332,-90.8320,20.2,11111222 
WAVCIS,ioos:station:WAVCIS:CSI15:1,2008-02-02T17:00:00Z,28.8332,-90.8320,20.62,11111222 
WAVCIS,ioos:station:WAVCIS:CSI15:1,2008-02-02T18:00:00Z,28.8332,-90.8320,20.97,11111222 
WAVCIS,ioos:station:WAVCIS:CSI15:1,2008-02-02T19:00:00Z,28.8332,-90.8320,22.94,11111222 
WAVCIS,ioos:station:WAVCIS:CSI15:1,2008-02-02T20:00:00Z,28.8332,-90.8320,22.24,11111222 
WAVCIS,ioos:station:WAVCIS:CSI15:1,2008-02-02T21:00:00Z,28.8332,-90.8320,21.8,11111222 
WAVCIS,ioos:station:WAVCIS:CSI15:1,2008-02-02T22:00:00Z,28.8332,-90.8320,21.6,11111222 
WAVCIS,ioos:station:WAVCIS:CSI15:1,2008-02-02T23:00:00Z,28.8332,-90.8320,21.03,11111222 
WAVCIS,ioos:station:WAVCIS:CSI15:1,2008-02-03T00:00:00Z,28.8332,-90.8320,21.03,11111222 
WAVCIS,ioos:station:WAVCIS:CSI15:1,2008-02-03T01:00:00Z,28.8332,-90.8320,21.45,11111222 
WAVCIS,ioos:station:WAVCIS:CSI15:1,2008-02-03T02:00:00Z,28.8332,-90.8320,21.46,11111222 
WAVCIS,ioos:station:WAVCIS:CSI15:1,2008-02-03T03:00:00Z,28.8332,-90.8320,21.7,11111222 
WAVCIS,ioos:station:WAVCIS:CSI15:1,2008-02-03T04:00:00Z,28.8332,-90.8320,24.23,11111222 
WAVCIS,ioos:station:WAVCIS:CSI15:1,2008-02-03T05:00:00Z,28.8332,-90.8320,22.26,11111222 
WAVCIS,ioos:station:WAVCIS:CSI15:1,2008-02-03T06:00:00Z,28.8332,-90.8320,23.49,11111222 
WAVCIS,ioos:station:WAVCIS:CSI15:1,2008-02-03T07:00:00Z,28.8332,-90.8320,22.1,11111222 
WAVCIS,ioos:station:WAVCIS:CSI15:1,2008-02-03T08:00:00Z,28.8332,-90.8320,22.1,11111222 
WAVCIS,ioos:station:WAVCIS:CSI15:1,2008-02-03T09:00:00Z,28.8332,-90.8320,21.97,11111222 
WAVCIS,ioos:station:WAVCIS:CSI15:1,2008-02-03T10:00:00Z,28.8332,-90.8320,22.54,11111222 
WAVCIS,ioos:station:WAVCIS:CSI15:1,2008-02-03T11:00:00Z,28.8332,-90.8320,22.06,11111222 
WAVCIS,ioos:station:WAVCIS:CSI15:1,2008-02-03T12:00:00Z,28.8332,-90.8320,22.23,11111222 
WAVCIS,ioos:station:WAVCIS:CSI15:1,2008-02-03T13:00:00Z,28.8332,-90.8320,22.47,11111222 
WAVCIS,ioos:station:WAVCIS:CSI15:1,2008-02-03T14:00:00Z,28.8332,-90.8320,22.8,11111222 
WAVCIS,ioos:station:WAVCIS:CSI15:1,2008-02-03T15:00:00Z,28.8332,-90.8320,23.82,11111222 
WAVCIS,ioos:station:WAVCIS:CSI15:1,2008-02-03T16:00:00Z,28.8332,-90.8320,22.88,11111222 
WAVCIS,ioos:station:WAVCIS:CSI15:1,2008-02-03T17:00:00Z,28.8332,-90.8320,23.05,11111222 
WAVCIS,ioos:station:WAVCIS:CSI15:1,2008-02-03T18:00:00Z,28.8332,-90.8320,23.15,11111222 
WAVCIS,ioos:station:WAVCIS:CSI15:1,2008-02-03T19:00:00Z,28.8332,-90.8320,23.3,11111222 
WAVCIS,ioos:station:WAVCIS:CSI15:1,2008-02-03T20:00:00Z,28.8332,-90.8320,23.54,11111222 
WAVCIS,ioos:station:WAVCIS:CSI15:1,2008-02-03T21:00:00Z,28.8332,-90.8320,24.02,11111222 
WAVCIS,ioos:station:WAVCIS:CSI15:1,2008-02-03T22:00:00Z,28.8332,-90.8320,23.85,11111222 
WAVCIS,ioos:station:WAVCIS:CSI15:1,2008-02-03T23:00:00Z,28.8332,-90.8320,24.68,11111222 
WAVCIS,ioos:station:WAVCIS:CSI15:1,2008-02-04T00:00:00Z,28.8332,-90.8320,24.1,11111222 
WAVCIS,ioos:station:WAVCIS:CSI15:1,2008-02-04T01:00:00Z,28.8332,-90.8320,23.69,11111222 
WAVCIS,ioos:station:WAVCIS:CSI15:1,2008-02-04T02:00:00Z,28.8332,-90.8320,24.99,11111222 
WAVCIS,ioos:station:WAVCIS:CSI15:1,2008-02-04T03:00:00Z,28.8332,-90.8320,23.29,11111222 
WAVCIS,ioos:station:WAVCIS:CSI15:1,2008-02-04T04:00:00Z,28.8332,-90.8320,23.05,11111222 
WAVCIS,ioos:station:WAVCIS:CSI15:1,2008-02-04T05:00:00Z,28.8332,-90.8320,23.32,11111222 
WAVCIS,ioos:station:WAVCIS:CSI15:1,2008-02-04T06:00:00Z,28.8332,-90.8320,23.16,11111222 
WAVCIS,ioos:station:WAVCIS:CSI15:1,2008-02-04T07:00:00Z,28.8332,-90.8320,23.24,11111222 
WAVCIS,ioos:station:WAVCIS:CSI15:1,2008-02-04T08:00:00Z,28.8332,-90.8320,23.44,11111222 
WAVCIS,ioos:station:WAVCIS:CSI15:1,2008-02-04T09:00:00Z,28.8332,-90.8320,23.4,11111222 
WAVCIS,ioos:station:WAVCIS:CSI15:1,2008-02-04T10:00:00Z,28.8332,-90.8320,23.94,11111222 
WAVCIS,ioos:station:WAVCIS:CSI15:1,2008-02-04T11:00:00Z,28.8332,-90.8320,26.12,11111222 
WAVCIS,ioos:station:WAVCIS:CSI15:1,2008-02-04T12:00:00Z,28.8332,-90.8320,23.92,11111222 
WAVCIS,ioos:station:WAVCIS:CSI15:1,2008-02-04T13:00:00Z,28.8332,-90.8320,23.97,11111222 
WAVCIS,ioos:station:WAVCIS:CSI15:1,2008-02-04T14:00:00Z,28.8332,-90.8320,23.82,11111222 
WAVCIS,ioos:station:WAVCIS:CSI15:1,2008-02-04T15:00:00Z,28.8332,-90.8320,23.49,11111222 
WAVCIS,ioos:station:WAVCIS:CSI15:1,2008-02-04T16:00:00Z,28.8332,-90.8320,23.74,11111222 
WAVCIS,ioos:station:WAVCIS:CSI15:1,2008-02-04T17:00:00Z,28.8332,-90.8320,23.56,11111222 
WAVCIS,ioos:station:WAVCIS:CSI15:1,2008-02-04T18:00:00Z,28.8332,-90.8320,23.59,11111222 
WAVCIS,ioos:station:WAVCIS:CSI15:1,2008-02-04T19:00:00Z,28.8332,-90.8320,23.96,11111222 
WAVCIS,ioos:station:WAVCIS:CSI15:1,2008-02-04T20:00:00Z,28.8332,-90.8320,23.93,11111222 
WAVCIS,ioos:station:WAVCIS:CSI15:1,2008-02-04T21:00:00Z,28.8332,-90.8320,24.34,11111222 
WAVCIS,ioos:station:WAVCIS:CSI15:1,2008-02-04T22:00:00Z,28.8332,-90.8320,24.19,11111222 
WAVCIS,ioos:station:WAVCIS:CSI15:1,2008-02-04T23:00:00Z,28.8332,-90.8320,25.05,11111222 
WAVCIS,ioos:station:WAVCIS:CSI15:1,2008-02-05T00:00:00Z,28.8332,-90.8320,26.09,11111222 
WAVCIS,ioos:station:WAVCIS:CSI15:1,2008-02-05T01:00:00Z,28.8332,-90.8320,24.76,11111222 
WAVCIS,ioos:station:WAVCIS:CSI15:1,2008-02-05T02:00:00Z,28.8332,-90.8320,25.5,11111222 
WAVCIS,ioos:station:WAVCIS:CSI15:1,2008-02-05T03:00:00Z,28.8332,-90.8320,24.0,11111222 
WAVCIS,ioos:station:WAVCIS:CSI15:1,2008-02-05T04:00:00Z,28.8332,-90.8320,23.92,11111222 
WAVCIS,ioos:station:WAVCIS:CSI15:1,2008-02-05T05:00:00Z,28.8332,-90.8320,23.9,11111222 
WAVCIS,ioos:station:WAVCIS:CSI15:1,2008-02-05T06:00:00Z,28.8332,-90.8320,23.89,11111222 
WAVCIS,ioos:station:WAVCIS:CSI15:1,2008-02-05T07:00:00Z,28.8332,-90.8320,23.8,11111222 
WAVCIS,ioos:station:WAVCIS:CSI15:1,2008-02-05T08:00:00Z,28.8332,-90.8320,24.06,11111222 
WAVCIS,ioos:station:WAVCIS:CSI15:1,2008-02-05T09:00:00Z,28.8332,-90.8320,23.82,11111222 
WAVCIS,ioos:station:WAVCIS:CSI15:1,2008-02-05T10:00:00Z,28.8332,-90.8320,23.69,11111222 
WAVCIS,ioos:station:WAVCIS:CSI15:1,2008-02-05T11:00:00Z,28.8332,-90.8320,24.17,11111222 
WAVCIS,ioos:station:WAVCIS:CSI15:1,2008-02-05T12:00:00Z,28.8332,-90.8320,24.26,11111222 
WAVCIS,ioos:station:WAVCIS:CSI15:1,2008-02-05T13:00:00Z,28.8332,-90.8320,23.69,11111222 
WAVCIS,ioos:station:WAVCIS:CSI15:1,2008-02-05T14:00:00Z,28.8332,-90.8320,24.26,11111222 
WAVCIS,ioos:station:WAVCIS:CSI15:1,2008-02-05T15:00:00Z,28.8332,-90.8320,24.21,11111222 
WAVCIS,ioos:station:WAVCIS:CSI15:1,2008-02-05T16:00:00Z,28.8332,-90.8320,24.41,11111222 
WAVCIS,ioos:station:WAVCIS:CSI15:1,2008-02-05T17:00:00Z,28.8332,-90.8320,24.37,11111222 
WAVCIS,ioos:station:WAVCIS:CSI15:1,2008-02-05T18:00:00Z,28.8332,-90.8320,24.41,11111222 
WAVCIS,ioos:station:WAVCIS:CSI15:1,2008-02-05T19:00:00Z,28.8332,-90.8320,24.29,11111222 
WAVCIS,ioos:station:WAVCIS:CSI15:1,2008-02-05T20:00:00Z,28.8332,-90.8320,24.43,11111222 
WAVCIS,ioos:station:WAVCIS:CSI15:1,2008-02-05T21:00:00Z,28.8332,-90.8320,24.39,11111222 
WAVCIS,ioos:station:WAVCIS:CSI15:1,2008-02-05T22:00:00Z,28.8332,-90.8320,24.56,11111222 
WAVCIS,ioos:station:WAVCIS:CSI15:1,2008-02-05T23:00:00Z,28.8332,-90.8320,24.58,11111222 
WAVCIS,ioos:station:WAVCIS:CSI15:1,2008-02-06T00:00:00Z,28.8332,-90.8320,24.63,11111222 
WAVCIS,ioos:station:WAVCIS:CSI15:1,2008-02-06T01:00:00Z,28.8332,-90.8320,24.67,11111222 
WAVCIS,ioos:station:WAVCIS:CSI15:1,2008-02-06T02:00:00Z,28.8332,-90.8320,24.64,11111222 
WAVCIS,ioos:station:WAVCIS:CSI15:1,2008-02-06T03:00:00Z,28.8332,-90.8320,24.42,11111222 
WAVCIS,ioos:station:WAVCIS:CSI15:1,2008-02-06T04:00:00Z,28.8332,-90.8320,24.29,11111222 
WAVCIS,ioos:station:WAVCIS:CSI15:1,2008-02-06T05:00:00Z,28.8332,-90.8320,24.31,11111222 
WAVCIS,ioos:station:WAVCIS:CSI15:1,2008-02-06T06:00:00Z,28.8332,-90.8320,24.23,11111222 
WAVCIS,ioos:station:WAVCIS:CSI15:1,2008-02-06T07:00:00Z,28.8332,-90.8320,23.91,11111222 
WAVCIS,ioos:station:WAVCIS:CSI15:1,2008-02-06T08:00:00Z,28.8332,-90.8320,24.63,11111222 
WAVCIS,ioos:station:WAVCIS:CSI15:1,2008-02-06T09:00:00Z,28.8332,-90.8320,24.73,11111222 
WAVCIS,ioos:station:WAVCIS:CSI15:1,2008-02-06T10:00:00Z,28.8332,-90.8320,23.86,11111222 
WAVCIS,ioos:station:WAVCIS:CSI15:1,2008-02-06T11:00:00Z,28.8332,-90.8320,23.55,11111222 
WAVCIS,ioos:station:WAVCIS:CSI15:1,2008-02-06T12:00:00Z,28.8332,-90.8320,18.95,11111222 
WAVCIS,ioos:station:WAVCIS:CSI15:1,2008-02-06T13:00:00Z,28.8332,-90.8320,19.05,11111222 
WAVCIS,ioos:station:WAVCIS:CSI15:1,2008-02-06T14:00:00Z,28.8332,-90.8320,19.05,11111222 
WAVCIS,ioos:station:WAVCIS:CSI15:1,2008-02-06T15:00:00Z,28.8332,-90.8320,18.79,11111222 
WAVCIS,ioos:station:WAVCIS:CSI15:1,2008-02-06T16:00:00Z,28.8332,-90.8320,18.36,11111222 
WAVCIS,ioos:station:WAVCIS:CSI15:1,2008-02-06T17:00:00Z,28.8332,-90.8320,18.21,11111222 
WAVCIS,ioos:station:WAVCIS:CSI15:1,2008-02-06T18:00:00Z,28.8332,-90.8320,17.48,11111222 
WAVCIS,ioos:station:WAVCIS:CSI15:1,2008-02-06T19:00:00Z,28.8332,-90.8320,17.26,11111222 
WAVCIS,ioos:station:WAVCIS:CSI15:1,2008-02-06T20:00:00Z,28.8332,-90.8320,17.21,11111222 
WAVCIS,ioos:station:WAVCIS:CSI15:1,2008-02-06T21:00:00Z,28.8332,-90.8320,17.21,11111222 
WAVCIS,ioos:station:WAVCIS:CSI15:1,2008-02-06T22:00:00Z,28.8332,-90.8320,17.35,11111222 
WAVCIS,ioos:station:WAVCIS:CSI15:1,2008-02-06T23:00:00Z,28.8332,-90.8320,17.42,11111222 
WAVCIS,ioos:station:WAVCIS:CSI15:1,2008-02-07T00:00:00Z,28.8332,-90.8320,17.27,11111222 
WAVCIS,ioos:station:WAVCIS:CSI15:1,2008-02-07T01:00:00Z,28.8332,-90.8320,17.46,11111222 
WAVCIS,ioos:station:WAVCIS:CSI15:1,2008-02-07T02:00:00Z,28.8332,-90.8320,17.59,11111222 
WAVCIS,ioos:station:WAVCIS:CSI15:1,2008-02-07T03:00:00Z,28.8332,-90.8320,17.62,11111222 
WAVCIS,ioos:station:WAVCIS:CSI15:1,2008-02-07T04:00:00Z,28.8332,-90.8320,17.45,11111222 
WAVCIS,ioos:station:WAVCIS:CSI15:1,2008-02-07T05:00:00Z,28.8332,-90.8320,17.0,11111222 
WAVCIS,ioos:station:WAVCIS:CSI15:1,2008-02-07T06:00:00Z,28.8332,-90.8320,16.64,11111222 
WAVCIS,ioos:station:WAVCIS:CSI15:1,2008-02-07T07:00:00Z,28.8332,-90.8320,15.95,11111222 
WAVCIS,ioos:station:WAVCIS:CSI15:1,2008-02-07T08:00:00Z,28.8332,-90.8320,15.56,11111222 
WAVCIS,ioos:station:WAVCIS:CSI15:1,2008-02-07T09:00:00Z,28.8332,-90.8320,15.37,11111222 
WAVCIS,ioos:station:WAVCIS:CSI15:1,2008-02-07T10:00:00Z,28.8332,-90.8320,15.02,11111222 
WAVCIS,ioos:station:WAVCIS:CSI15:1,2008-02-07T11:00:00Z,28.8332,-90.8320,14.71,11111222 
WAVCIS,ioos:station:WAVCIS:CSI15:1,2008-02-07T12:00:00Z,28.8332,-90.8320,14.8,11111222 
WAVCIS,ioos:station:WAVCIS:CSI15:1,2008-02-07T13:00:00Z,28.8332,-90.8320,14.64,11111222 
WAVCIS,ioos:station:WAVCIS:CSI15:1,2008-02-07T14:00:00Z,28.8332,-90.8320,14.93,11111222 
WAVCIS,ioos:station:WAVCIS:CSI15:1,2008-02-07T15:00:00Z,28.8332,-90.8320,15.0,11111222 
WAVCIS,ioos:station:WAVCIS:CSI15:1,2008-02-07T16:00:00Z,28.8332,-90.8320,15.13,11111222 
WAVCIS,ioos:station:WAVCIS:CSI15:1,2008-02-07T17:00:00Z,28.8332,-90.8320,15.37,11111222 
WAVCIS,ioos:station:WAVCIS:CSI15:1,2008-02-07T18:00:00Z,28.8332,-90.8320,15.66,11111222 
WAVCIS,ioos:station:WAVCIS:CSI15:1,2008-02-07T19:00:00Z,28.8332,-90.8320,16.46,11111222 
WAVCIS,ioos:station:WAVCIS:CSI15:1,2008-02-07T20:00:00Z,28.8332,-90.8320,18.07,11111222 
WAVCIS,ioos:station:WAVCIS:CSI15:1,2008-02-07T21:00:00Z,28.8332,-90.8320,19.38,11111222 
WAVCIS,ioos:station:WAVCIS:CSI15:1,2008-02-07T22:00:00Z,28.8332,-90.8320,18.28,11111222 
WAVCIS,ioos:station:WAVCIS:CSI15:1,2008-02-07T23:00:00Z,28.8332,-90.8320,18.66,11111222 
WAVCIS,ioos:station:WAVCIS:CSI15:1,2008-02-08T00:00:00Z,28.8332,-90.8320,17.5,11111222 
WAVCIS,ioos:station:WAVCIS:CSI15:1,2008-02-08T01:00:00Z,28.8332,-90.8320,17.55,11111222 
WAVCIS,ioos:station:WAVCIS:CSI15:1,2008-02-08T02:00:00Z,28.8332,-90.8320,17.76,11111222 
WAVCIS,ioos:station:WAVCIS:CSI15:1,2008-02-08T03:00:00Z,28.8332,-90.8320,18.05,11111222 
WAVCIS,ioos:station:WAVCIS:CSI15:1,2008-02-08T04:00:00Z,28.8332,-90.8320,18.54,11111222 
WAVCIS,ioos:station:WAVCIS:CSI15:1,2008-02-08T05:00:00Z,28.8332,-90.8320,18.96,11111222 
WAVCIS,ioos:station:WAVCIS:CSI15:1,2008-02-08T06:00:00Z,28.8332,-90.8320,19.12,11111222 
WAVCIS,ioos:station:WAVCIS:CSI15:1,2008-02-08T07:00:00Z,28.8332,-90.8320,19.41,11111222 
WAVCIS,ioos:station:WAVCIS:CSI15:1,2008-02-08T08:00:00Z,28.8332,-90.8320,19.66,11111222 
WAVCIS,ioos:station:WAVCIS:CSI15:1,2008-02-08T09:00:00Z,28.8332,-90.8320,19.78,11111222 
WAVCIS,ioos:station:WAVCIS:CSI15:1,2008-02-08T10:00:00Z,28.8332,-90.8320,19.76,11111222 
WAVCIS,ioos:station:WAVCIS:CSI15:1,2008-02-08T11:00:00Z,28.8332,-90.8320,17.39,11111222 
WAVCIS,ioos:station:WAVCIS:CSI15:1,2008-02-08T12:00:00Z,28.8332,-90.8320,16.44,11111222 
WAVCIS,ioos:station:WAVCIS:CSI15:1,2008-02-08T13:00:00Z,28.8332,-90.8320,15.59,11111222 
WAVCIS,ioos:station:WAVCIS:CSI15:1,2008-02-08T14:00:00Z,28.8332,-90.8320,16.04,11111222 
WAVCIS,ioos:station:WAVCIS:CSI15:1,2008-02-08T15:00:00Z,28.8332,-90.8320,16.61,11111222 
WAVCIS,ioos:station:WAVCIS:CSI15:1,2008-02-08T16:00:00Z,28.8332,-90.8320,17.05,11111222 
WAVCIS,ioos:station:WAVCIS:CSI15:1,2008-02-08T17:00:00Z,28.8332,-90.8320,17.44,11111222 
WAVCIS,ioos:station:WAVCIS:CSI15:1,2008-02-08T18:00:00Z,28.8332,-90.8320,18.14,11111222 
WAVCIS,ioos:station:WAVCIS:CSI15:1,2008-02-08T19:00:00Z,28.8332,-90.8320,18.61,11111222 
WAVCIS,ioos:station:WAVCIS:CSI15:1,2008-02-08T20:00:00Z,28.8332,-90.8320,18.99,11111222 
WAVCIS,ioos:station:WAVCIS:CSI15:1,2008-02-08T21:00:00Z,28.8332,-90.8320,19.37,11111222 
WAVCIS,ioos:station:WAVCIS:CSI15:1,2008-02-08T22:00:00Z,28.8332,-90.8320,20.41,11111222 
WAVCIS,ioos:station:WAVCIS:CSI15:1,2008-02-08T23:00:00Z,28.8332,-90.8320,20.86,11111222 
WAVCIS,ioos:station:WAVCIS:CSI15:1,2008-02-09T00:00:00Z,28.8332,-90.8320,22.23,11111222 
WAVCIS,ioos:station:WAVCIS:CSI15:1,2008-02-09T01:00:00Z,28.8332,-90.8320,21.31,11111222 
WAVCIS,ioos:station:WAVCIS:CSI15:1,2008-02-09T02:00:00Z,28.8332,-90.8320,21.35,11111222 
WAVCIS,ioos:station:WAVCIS:CSI15:1,2008-02-09T03:00:00Z,28.8332,-90.8320,21.42,11111222 
WAVCIS,ioos:station:WAVCIS:CSI15:1,2008-02-09T04:00:00Z,28.8332,-90.8320,21.42,11111222 
WAVCIS,ioos:station:WAVCIS:CSI15:1,2008-02-09T05:00:00Z,28.8332,-90.8320,21.55,11111222 
WAVCIS,ioos:station:WAVCIS:CSI15:1,2008-02-09T06:00:00Z,28.8332,-90.8320,21.6,11111222 
WAVCIS,ioos:station:WAVCIS:CSI15:1,2008-02-09T07:00:00Z,28.8332,-90.8320,21.73,11111222 
WAVCIS,ioos:station:WAVCIS:CSI15:1,2008-02-09T08:00:00Z,28.8332,-90.8320,21.72,11111222 
WAVCIS,ioos:station:WAVCIS:CSI15:1,2008-02-09T09:00:00Z,28.8332,-90.8320,21.61,11111222 
WAVCIS,ioos:station:WAVCIS:CSI15:1,2008-02-09T10:00:00Z,28.8332,-90.8320,21.52,11111222 
WAVCIS,ioos:station:WAVCIS:CSI15:1,2008-02-09T11:00:00Z,28.8332,-90.8320,22.8,11111222 
WAVCIS,ioos:station:WAVCIS:CSI15:1,2008-02-09T12:00:00Z,28.8332,-90.8320,24.75,11111222 
WAVCIS,ioos:station:WAVCIS:CSI15:1,2008-02-09T13:00:00Z,28.8332,-90.8320,20.28,11111222 
WAVCIS,ioos:station:WAVCIS:CSI15:1,2008-02-09T14:00:00Z,28.8332,-90.8320,20.88,11111222 
WAVCIS,ioos:station:WAVCIS:CSI15:1,2008-02-09T15:00:00Z,28.8332,-90.8320,21.37,11111222 
WAVCIS,ioos:station:WAVCIS:CSI15:1,2008-02-09T16:00:00Z,28.8332,-90.8320,22.24,11111222 
WAVCIS,ioos:station:WAVCIS:CSI15:1,2008-02-09T17:00:00Z,28.8332,-90.8320,22.62,11111222 
WAVCIS,ioos:station:WAVCIS:CSI15:1,2008-02-09T18:00:00Z,28.8332,-90.8320,22.88,11111222 
WAVCIS,ioos:station:WAVCIS:CSI15:1,2008-02-09T19:00:00Z,28.8332,-90.8320,24.14,11111222 
WAVCIS,ioos:station:WAVCIS:CSI15:1,2008-02-09T20:00:00Z,28.8332,-90.8320,27.77,11111222 
WAVCIS,ioos:station:WAVCIS:CSI15:1,2008-02-09T21:00:00Z,28.8332,-90.8320,27.62,11111222 
WAVCIS,ioos:station:WAVCIS:CSI15:1,2008-02-09T22:00:00Z,28.8332,-90.8320,26.36,11111222 
WAVCIS,ioos:station:WAVCIS:CSI15:1,2008-02-09T23:00:00Z,28.8332,-90.8320,25.75,11111222 
WAVCIS,ioos:station:WAVCIS:CSI15:1,2008-02-10T00:00:00Z,28.8332,-90.8320,23.64,11111222 
WAVCIS,ioos:station:WAVCIS:CSI15:1,2008-02-10T01:00:00Z,28.8332,-90.8320,21.4,11111222 
WAVCIS,ioos:station:WAVCIS:CSI15:1,2008-02-10T02:00:00Z,28.8332,-90.8320,21.47,11111222 
WAVCIS,ioos:station:WAVCIS:CSI15:1,2008-02-10T03:00:00Z,28.8332,-90.8320,21.67,11111222 
WAVCIS,ioos:station:WAVCIS:CSI15:1,2008-02-10T04:00:00Z,28.8332,-90.8320,22.09,11111222 
WAVCIS,ioos:station:WAVCIS:CSI15:1,2008-02-10T05:00:00Z,28.8332,-90.8320,21.59,11111222 
WAVCIS,ioos:station:WAVCIS:CSI15:1,2008-02-10T06:00:00Z,28.8332,-90.8320,21.43,11111222 
WAVCIS,ioos:station:WAVCIS:CSI15:1,2008-02-10T07:00:00Z,28.8332,-90.8320,21.38,11111222 
WAVCIS,ioos:station:WAVCIS:CSI15:1,2008-02-10T08:00:00Z,28.8332,-90.8320,21.14,11111222 
WAVCIS,ioos:station:WAVCIS:CSI15:1,2008-02-10T09:00:00Z,28.8332,-90.8320,21.05,11111222 
WAVCIS,ioos:station:WAVCIS:CSI15:1,2008-02-10T10:00:00Z,28.8332,-90.8320,20.97,11111222 
WAVCIS,ioos:station:WAVCIS:CSI15:1,2008-02-10T11:00:00Z,28.8332,-90.8320,20.51,11111222 
WAVCIS,ioos:station:WAVCIS:CSI15:1,2008-02-10T12:00:00Z,28.8332,-90.8320,20.45,11111222 
WAVCIS,ioos:station:WAVCIS:CSI15:1,2008-02-10T13:00:00Z,28.8332,-90.8320,20.54,11111222 
WAVCIS,ioos:station:WAVCIS:CSI15:1,2008-02-10T14:00:00Z,28.8332,-90.8320,20.71,11111222 
WAVCIS,ioos:station:WAVCIS:CSI15:1,2008-02-10T15:00:00Z,28.8332,-90.8320,21.17,11111222 
WAVCIS,ioos:station:WAVCIS:CSI15:1,2008-02-10T16:00:00Z,28.8332,-90.8320,21.18,11111222 
WAVCIS,ioos:station:WAVCIS:CSI15:1,2008-02-10T17:00:00Z,28.8332,-90.8320,21.16,11111222 
WAVCIS,ioos:station:WAVCIS:CSI15:1,2008-02-10T18:00:00Z,28.8332,-90.8320,20.96,11111222 
WAVCIS,ioos:station:WAVCIS:CSI15:1,2008-02-10T19:00:00Z,28.8332,-90.8320,21.09,11111222 
WAVCIS,ioos:station:WAVCIS:CSI15:1,2008-02-10T20:00:00Z,28.8332,-90.8320,21.0,11111222 
WAVCIS,ioos:station:WAVCIS:CSI15:1,2008-02-10T21:00:00Z,28.8332,-90.8320,21.12,11111222 
WAVCIS,ioos:station:WAVCIS:CSI15:1,2008-02-10T22:00:00Z,28.8332,-90.8320,21.1,11111222 
WAVCIS,ioos:station:WAVCIS:CSI15:1,2008-02-10T23:00:00Z,28.8332,-90.8320,21.25,11111222 
WAVCIS,ioos:station:WAVCIS:CSI15:1,2008-02-11T00:00:00Z,28.8332,-90.8320,21.06,11111222 
WAVCIS,ioos:station:WAVCIS:CSI15:1,2008-02-11T01:00:00Z,28.8332,-90.8320,21.12,11111222 
WAVCIS,ioos:station:WAVCIS:CSI15:1,2008-02-11T02:00:00Z,28.8332,-90.8320,21.32,11111222 
WAVCIS,ioos:station:WAVCIS:CSI15:1,2008-02-11T03:00:00Z,28.8332,-90.8320,21.42,11111222 
WAVCIS,ioos:station:WAVCIS:CSI15:1,2008-02-11T04:00:00Z,28.8332,-90.8320,21.65,11111222 
WAVCIS,ioos:station:WAVCIS:CSI15:1,2008-02-11T05:00:00Z,28.8332,-90.8320,24.03,11111222 
WAVCIS,ioos:station:WAVCIS:CSI15:1,2008-02-11T06:00:00Z,28.8332,-90.8320,22.55,11111222 
WAVCIS,ioos:station:WAVCIS:CSI15:1,2008-02-11T07:00:00Z,28.8332,-90.8320,22.26,11111222 
WAVCIS,ioos:station:WAVCIS:CSI15:1,2008-02-11T08:00:00Z,28.8332,-90.8320,25.7,11111222 
WAVCIS,ioos:station:WAVCIS:CSI15:1,2008-02-11T09:00:00Z,28.8332,-90.8320,22.5,11111222 
WAVCIS,ioos:station:WAVCIS:CSI15:1,2008-02-11T10:00:00Z,28.8332,-90.8320,22.2,11111222 
WAVCIS,ioos:station:WAVCIS:CSI15:1,2008-02-11T11:00:00Z,28.8332,-90.8320,23.39,11111222 
WAVCIS,ioos:station:WAVCIS:CSI15:1,2008-02-11T12:00:00Z,28.8332,-90.8320,23.02,11111222 
WAVCIS,ioos:station:WAVCIS:CSI15:1,2008-02-11T13:00:00Z,28.8332,-90.8320,25.43,11111222 
WAVCIS,ioos:station:WAVCIS:CSI15:1,2008-02-11T14:00:00Z,28.8332,-90.8320,22.7,11111222 
WAVCIS,ioos:station:WAVCIS:CSI15:1,2008-02-11T15:00:00Z,28.8332,-90.8320,22.88,11111222 
WAVCIS,ioos:station:WAVCIS:CSI15:1,2008-02-11T16:00:00Z,28.8332,-90.8320,23.03,11111222 
WAVCIS,ioos:station:WAVCIS:CSI15:1,2008-02-11T17:00:00Z,28.8332,-90.8320,24.48,11111222 
WAVCIS,ioos:station:WAVCIS:CSI15:1,2008-02-11T18:00:00Z,28.8332,-90.8320,23.45,11111222 
WAVCIS,ioos:station:WAVCIS:CSI15:1,2008-02-11T19:00:00Z,28.8332,-90.8320,22.95,11111222 
WAVCIS,ioos:station:WAVCIS:CSI15:1,2008-02-11T20:00:00Z,28.8332,-90.8320,23.12,11111222 
WAVCIS,ioos:station:WAVCIS:CSI15:1,2008-02-11T21:00:00Z,28.8332,-90.8320,25.38,11111222 
WAVCIS,ioos:station:WAVCIS:CSI15:1,2008-02-11T22:00:00Z,28.8332,-90.8320,22.55,11111222 
WAVCIS,ioos:station:WAVCIS:CSI15:1,2008-02-11T23:00:00Z,28.8332,-90.8320,22.75,11111222 
WAVCIS,ioos:station:WAVCIS:CSI15:1,2008-02-12T00:00:00Z,28.8332,-90.8320,24.13,11111222 
WAVCIS,ioos:station:WAVCIS:CSI15:1,2008-02-12T01:00:00Z,28.8332,-90.8320,23.9,11111222 
WAVCIS,ioos:station:WAVCIS:CSI15:1,2008-02-12T02:00:00Z,28.8332,-90.8320,23.32,11111222 
WAVCIS,ioos:station:WAVCIS:CSI15:1,2008-02-12T03:00:00Z,28.8332,-90.8320,23.29,11111222 
WAVCIS,ioos:station:WAVCIS:CSI15:1,2008-02-12T04:00:00Z,28.8332,-90.8320,22.81,11111222 